Home   Weather   Tórshavn   Past weeks

Flag for Faroe Islands Past Weather in Tórshavn, Faroe Islands — Yesterday and Last 2 Weeks

Now
37 °F

Passing clouds.


Feels Like: 31 °F
Forecast: N/A
Wind: 9 mph from North

Location: Soervaag / Vagar

Current Time: Feb 26, 2017 at 11:32:33 pm

Latest Report: Feb 26, 2017 at 10:50 pm


Visibility: N/A

Pressure: 28.85 "Hg

Humidity: 87%

Dew Point: 34 °F

Location of TórshavnLocation

Past Weather in Tórshavn — Graph

°F

Tórshavn Temperature Yesterday

Maximum temperature yesterday: 48 °F (at 4:50 am)
Minimum temperature yesterday: 34 °F (at 9:50 pm)
Average temperature yesterday: 41 °F

High & Low Weather Summary for the Past Weeks

 TemperatureHumidityPressure
High48 °F (Feb 25, 4:50 am)100% (Feb 12, 8:20 pm)30.63 "Hg (Feb 12, 8:20 pm)
Low27 °F (Feb 24, 12:50 am)51% (Feb 23, 4:50 am)28.47 "Hg (Feb 21, 10:20 pm)
Average41 °F86%29.67 "Hg
* Reported Feb 11 10:20 pm — Feb 26 10:20 pm, Tórshavn, Weather by CustomWeather, © 2017

Note: Actual official high and low records may vary slightly from our data, if they occured in-between our weather recording intervals... More about our weather records

Advertising

Tórshavn Weather History for the Previous 24 Hours

Scroll right to see more
 ConditionsComfort  
Time TempWeatherWind HumidityBarometerVisibility
10:20 pm
Sun, Feb 26
37 °FPassing clouds.10 mph81%28.88 "HgN/A
9:50 pm37 °FPassing clouds.10 mph75%28.88 "HgN/A
9:20 pm37 °FPassing clouds.10 mph75%28.91 "HgN/A
8:50 pm37 °FPassing clouds.10 mph75%28.91 "HgN/A
8:20 pm37 °FPassing clouds.9 mph81%28.94 "HgN/A
7:50 pm37 °FPassing clouds.7 mph81%28.94 "HgN/A
7:20 pm37 °FPassing clouds.9 mph75%28.94 "HgN/A
6:50 pm37 °FPassing clouds.6 mph75%28.94 "HgN/A
6:20 pm37 °FPassing clouds.3 mph75%28.94 "HgN/A
5:50 pm36 °FPassing clouds.1 mph87%28.94 "HgN/A
5:20 pm37 °FChilly.6 mph81%28.94 "HgN/A
4:50 pm37 °FChilly.1 mph75%28.97 "HgN/A
4:20 pm41 °FQuite cool.1 mph70%28.97 "HgN/A
3:50 pm41 °FQuite cool.3 mph70%28.97 "HgN/A
3:21 pm43 °FPassing clouds.6 mph61%28.97 "HgN/A
2:53 pm43 °FPassing clouds.6 mph66%28.97 "HgN/A
2:21 pm43 °FScattered clouds.6 mph66%28.97 "HgN/A
1:54 pm43 °FScattered clouds.5 mph71%28.97 "HgN/A
1:20 pm41 °FScattered clouds.6 mph81%28.97 "HgN/A
12:50 pm41 °FScattered clouds.6 mph87%29.00 "HgN/A
12:23 pm41 °FPartly sunny.1 mph93%29.00 "HgN/A
11:50 am39 °FPartly sunny.3 mph93%28.97 "HgN/A
11:22 am39 °FBroken clouds.3 mph93%28.97 "HgN/A
10:52 am36 °FPartly sunny.1 mph100%28.97 "HgN/A
10:27 am34 °FPartly sunny.5 mph100%28.94 "HgN/A
9:53 am36 °FLight rain. Low clouds.16 mph93%28.94 "Hg4 mi
9:20 am41 °FLight rain. Low clouds.24 mph87%28.94 "Hg4 mi
8:51 am43 °FLight rain. Partly sunny.24 mph87%28.94 "Hg5 mi
8:20 am43 °FLight rain. Partly sunny.31 mph87%28.94 "HgN/A
7:50 am41 °FDrizzle. Partly sunny.29 mph87%28.97 "HgN/A
7:20 am41 °FSprinkles. Passing clouds.30 mph87%28.97 "HgN/A
6:50 am41 °FSprinkles. Passing clouds.29 mph87%29.00 "HgN/A
6:20 am41 °FLight rain. Passing clouds.31 mph87%29.00 "HgN/A
5:50 am41 °FPassing clouds.31 mph81%29.03 "HgN/A
5:20 am39 °FPassing clouds.28 mph87%29.06 "HgN/A
4:50 am39 °FPassing clouds.25 mph87%29.06 "HgN/A
4:20 am39 °FPassing clouds.26 mph81%29.09 "HgN/A
3:50 am39 °FPassing clouds.25 mph81%29.12 "HgN/A
3:20 am39 °FPassing clouds.21 mph81%29.12 "HgN/A
2:50 am39 °FPassing clouds.21 mph81%29.15 "HgN/A
2:20 am39 °FPassing clouds.18 mph75%29.18 "HgN/A
1:50 am37 °FPassing clouds.15 mph81%29.18 "HgN/A
1:20 am37 °FPassing clouds.16 mph87%29.21 "HgN/A
12:50 am37 °FChilly.12 mph81%29.21 "HgN/A
12:20 am37 °FPassing clouds.17 mph81%29.24 "HgN/A
11:50 pm
Sat, Feb 25
37 °FChilly.13 mph70%29.24 "HgN/A
11:20 pm37 °FPassing clouds.10 mph65%29.24 "HgN/A
Weather by CustomWeather, © 2017

See weather overviewHow to use our weather pages